Вернуться в каталог

STARLINK-33955

АктивенСвязьVLEO
NORAD 63902·PAYLOAD·🇺🇸 United States

Запущен May 10, 2025 с Cape Canaveral Space Force Station

Loading…

Ближайшие Пролёты (ближайшие 24 часа)

TLE

СвежийSource: CelesTrak SupGP

Эпоха: Sep 14, 2026, 22:40 UTC

1 63902C 25095N   26257.94493056 -.00027112  00000+0 -98144-3 0  2573
2 63902  43.0024 187.0295 0001523 270.7217 185.3372 15.27610121    10

Отслеживайте STARLINK-33955 в реальном времени с AllMySat

Download on the App Store